Flag Weather past 2 weeks in Lanzhou, Gansu, China

Now
34 °F

Snow flurries. Partly sunny.


Feels Like: 31 °F
Forecast: 25 / 44 °F
Wind: 3 mph from Northeast

Location: Lanzhou / Zhongchuan

Current Time: Nov 1, 2014 at 6:35:14 PM

Latest Report: Nov 1, 2014 at 6:00 PM


Visibility: N/A

Pressure: 30.48 "Hg

Humidity: 81%

Dew point: 28 °F

Location of LanzhouLocation

Historic Weather in Lanzhou — Graph

°F

Lanzhou temperature yesterday

Maximum temperature yesterday: 41 °F (at 2:00 PM)
Minimum temperature yesterday: 32 °F (at 2:00 AM)
Average temperature yesterday: 35 °F

Past Weeks' High & Low Weather Summary

 TemperatureHumidityPressure
High66 °F (Oct 24, 3:00 PM)100% (Oct 21, 5:00 AM)30.48 "Hg (Oct 21, 5:00 AM)
Low30 °F (Nov 1, 6:00 AM)22% (Oct 22, 2:00 PM)30.01 "Hg (Oct 27, 5:00 PM)
Average46 °F67%30.19 "Hg
* Reported Oct 17 5:00 PM — Nov 1 5:00 PM, Lanzhou, Weather by CustomWeather, © 2014

Note: Actual official high and low records may vary slightly from our data, if they occured in-between our weather recording intervals... More about our weather records

Advertising

Lanzhou weather history for previous 24 hours

 ConditionsComfort  
Time TempWeatherWind HumidityBarometerVisibility
5:00 PM
Nov 1
36 °FSnow flurries. Scattered clouds.1 mph65%30.45 "HgN/A
4:00 PM36 °FSnow flurries. Partly sunny.1 mph65%30.45 "HgN/A
3:00 PM36 °FScattered clouds.10 mph70%30.42 "HgN/A
2:00 PM39 °FScattered clouds.1 mph48%30.45 "HgN/A
1:00 PM36 °FSnow flurries. Scattered clouds.6 mph56%30.45 "HgN/A
12:00 PM36 °FScattered clouds.6 mph65%30.48 "HgN/A
11:00 AM36 °FPassing clouds.13 mph75%30.48 "HgN/A
10:00 AM34 °FPartly sunny.8 mph65%30.48 "HgN/A
9:00 AM32 °FLight snow. Ice fog.3 mph87%30.48 "Hg3 mi
8:00 AM30 °FLight snow. Ice fog.1 mph93%30.42 "Hg1 mi
7:00 AM30 °FLight snow. Ice fog.No wind93%30.39 "Hg2 mi
6:00 AM30 °FLight snow. Mostly cloudy.3 mph93%30.39 "Hg1 mi
5:00 AM32 °FClear.1 mph80%30.39 "Hg10 mi
4:00 AM32 °FClear.8 mph75%30.36 "Hg10 mi
3:00 AM34 °FPassing clouds.6 mph60%30.36 "HgN/A
2:00 AM34 °FPassing clouds.No wind65%30.39 "HgN/A
1:00 AM34 °FPassing clouds.No wind60%30.39 "HgN/A
12:00 AM34 °FPassing clouds.No wind51%30.39 "HgN/A
11:00 PM
Oct 31
36 °FPassing clouds.3 mph48%30.39 "HgN/A
10:00 PM36 °FPassing clouds.3 mph48%30.36 "HgN/A
9:00 PM36 °FPassing clouds.6 mph48%30.36 "HgN/A
8:00 PM36 °FPassing clouds.8 mph44%30.33 "HgN/A
7:00 PM36 °FScattered clouds.6 mph48%30.30 "HgN/A
6:00 PM37 °FScattered clouds.6 mph52%30.27 "HgN/A
Weather by CustomWeather, © 2014

See weather overviewHow to use our weather pages